Time,TemperatureF,DewpointF,PressureIn,WindDirection,WindDirectionDegrees,WindSpeedMPH,WindSpeedGustMPH,Humidity,HourlyPrecipIn,Conditions,Clouds,dailyrainin,SoftwareType,DateUTC
2013-09-10 00:00:00,75.9,74.0,29.97,SE,134,0.0,0.0,94,0.00,,,0.05,Wunderground v.1.15,2013-09-10 05:00:00,
2013-09-10 00:10:00,76.0,74.5,29.97,SE,134,0.0,0.0,95,0.00,,,0.00,Wunderground v.1.15,2013-09-10 05:10:00,
2013-09-10 00:20:00,76.0,74.5,29.97,SE,134,0.0,0.0,95,0.00,,,0.00,Wunderground v.1.15,2013-09-10 05:20:00,
2013-09-10 00:30:00,76.2,74.7,29.97,SE,134,0.0,0.0,95,0.00,,,0.00,Wunderground v.1.15,2013-09-10 05:30:00,
2013-09-10 00:40:00,76.2,74.7,29.97,SE,134,0.0,0.0,95,0.00,,,0.00,Wunderground v.1.15,2013-09-10 05:40:00,
2013-09-10 00:50:00,76.3,74.8,29.97,SE,134,0.0,0.0,95,0.00,,,0.00,Wunderground v.1.15,2013-09-10 05:50:00,
2013-09-10 01:00:00,76.3,74.8,29.97,SE,134,0.0,0.0,95,0.00,,,0.00,Wunderground v.1.15,2013-09-10 06:00:00,
2013-09-10 01:10:00,76.5,75.0,29.97,SE,134,0.0,0.0,95,0.00,,,0.00,Wunderground v.1.15,2013-09-10 06:10:00,
2013-09-10 01:20:00,76.6,75.4,29.97,SE,134,0.0,0.0,96,0.00,,,0.00,Wunderground v.1.15,2013-09-10 06:20:00,
2013-09-10 01:30:00,76.7,75.5,29.97,SE,134,0.0,0.0,96,0.00,,,0.00,Wunderground v.1.15,2013-09-10 06:30:00,
2013-09-10 01:40:00,77.0,75.8,29.97,SE,134,0.0,0.0,96,0.00,,,0.00,Wunderground v.1.15,2013-09-10 06:40:00,
2013-09-10 01:50:00,77.1,75.6,29.97,SE,134,0.0,0.0,95,0.00,,,0.00,Wunderground v.1.15,2013-09-10 06:50:00,
2013-09-10 02:00:00,77.1,75.6,29.97,SE,134,0.0,0.0,95,0.00,,,0.00,Wunderground v.1.15,2013-09-10 07:00:00,
2013-09-10 02:10:00,76.9,75.4,29.97,SE,134,0.0,0.0,95,0.00,,,0.00,Wunderground v.1.15,2013-09-10 07:10:00,
2013-09-10 02:20:00,76.9,75.4,29.98,SE,136,0.0,0.0,95,2.11,,,0.04,Wunderground v.1.15,2013-09-10 07:20:00,
2013-09-10 02:30:00,77.4,76.2,29.98,WNW,294,0.0,0.0,96,0.12,,,0.11,Wunderground v.1.15,2013-09-10 07:30:00,
2013-09-10 02:40:00,77.3,76.1,29.98,WNW,298,0.0,0.0,96,0.06,,,0.12,Wunderground v.1.15,2013-09-10 07:40:00,
2013-09-10 02:50:00,77.3,76.1,29.98,NE,49,0.0,0.0,96,0.04,,,0.12,Wunderground v.1.15,2013-09-10 07:50:00,
2013-09-10 03:00:00,77.1,75.9,29.97,NE,49,0.0,0.0,96,0.00,,,0.12,Wunderground v.1.15,2013-09-10 08:00:00,
2013-09-10 03:10:00,77.1,76.2,29.97,NE,49,0.0,0.0,97,0.00,,,0.12,Wunderground v.1.15,2013-09-10 08:10:00,
2013-09-10 03:20:00,77.1,76.2,29.97,NE,48,0.0,0.0,97,0.00,,,0.12,Wunderground v.1.15,2013-09-10 08:20:00,
2013-09-10 03:30:00,77.0,76.1,29.97,NE,49,0.0,0.0,97,0.00,,,0.12,Wunderground v.1.15,2013-09-10 08:30:00,
2013-09-10 03:39:00,76.9,76.0,29.97,NE,49,0.0,4.0,97,0.00,,,0.12,Wunderground v.1.15,2013-09-10 08:39:00,
2013-09-10 03:50:00,76.8,75.9,29.96,NE,49,0.0,4.0,97,0.00,,,0.12,Wunderground v.1.15,2013-09-10 08:50:00,
2013-09-10 04:00:00,76.7,75.8,29.97,South,184,0.0,0.0,97,0.00,,,0.12,Wunderground v.1.15,2013-09-10 09:00:00,
2013-09-10 04:10:00,74.8,73.6,29.97,NE,40,2.0,2.0,96,0.16,,,0.43,Wunderground v.1.15,2013-09-10 09:10:00,
2013-09-10 04:20:00,75.3,74.4,29.98,NE,41,1.0,1.0,97,0.04,,,0.43,Wunderground v.1.15,2013-09-10 09:20:00,
2013-09-10 04:29:00,75.0,74.1,29.99,SE,124,0.0,1.0,97,0.00,,,0.43,Wunderground v.1.15,2013-09-10 09:29:00,
2013-09-10 04:40:00,75.2,74.6,29.99,ENE,57,0.0,0.0,98,0.00,,,0.43,Wunderground v.1.15,2013-09-10 09:40:00,
2013-09-10 04:50:00,75.1,74.5,29.99,ENE,62,0.0,0.0,98,0.00,,,0.43,Wunderground v.1.15,2013-09-10 09:50:00,
2013-09-10 05:00:00,74.9,74.3,29.99,ENE,60,0.0,0.0,98,0.00,,,0.43,Wunderground v.1.15,2013-09-10 10:00:00,
2013-09-10 05:10:00,74.6,74.0,29.99,NNE,18,0.0,0.0,98,0.00,,,0.43,Wunderground v.1.15,2013-09-10 10:10:00,
2013-09-10 05:20:00,74.4,73.8,29.99,NNE,19,0.0,0.0,98,0.00,,,0.43,Wunderground v.1.15,2013-09-10 10:20:00,
2013-09-10 05:30:00,74.2,73.6,29.98,SE,124,0.0,1.0,98,0.00,,,0.43,Wunderground v.1.15,2013-09-10 10:30:00,
2013-09-10 05:39:00,74.5,74.2,29.98,ESE,110,0.0,9.0,99,0.00,,,0.44,Wunderground v.1.15,2013-09-10 10:39:00,
2013-09-10 05:50:00,74.6,74.3,29.98,East,96,0.0,9.0,99,0.00,,,0.44,Wunderground v.1.15,2013-09-10 10:50:00,
2013-09-10 06:00:00,74.6,74.3,29.99,ESE,105,0.0,0.0,99,0.04,,,0.45,Wunderground v.1.15,2013-09-10 11:00:00,
2013-09-10 06:10:00,74.5,74.2,29.99,ESE,103,0.0,0.0,99,0.04,,,0.45,Wunderground v.1.15,2013-09-10 11:10:00,
2013-09-10 06:20:00,74.5,74.2,29.99,ESE,103,0.0,0.0,99,0.00,,,0.45,Wunderground v.1.15,2013-09-10 11:20:00,
2013-09-10 06:30:00,74.5,74.2,29.99,ESE,103,0.0,0.0,99,0.00,,,0.45,Wunderground v.1.15,2013-09-10 11:30:00,
2013-09-10 06:40:00,74.4,74.1,29.99,ESE,103,0.0,2.0,99,0.00,,,0.45,Wunderground v.1.15,2013-09-10 11:40:00,
2013-09-10 06:50:00,74.4,74.1,29.99,ESE,103,0.0,2.0,99,0.00,,,0.45,Wunderground v.1.15,2013-09-10 11:50:00,
2013-09-10 07:00:00,74.3,74.0,30.00,ESE,103,0.0,0.0,99,0.00,,,0.45,Wunderground v.1.15,2013-09-10 12:00:00,
2013-09-10 07:10:00,74.4,74.1,30.00,ESE,103,0.0,0.0,99,0.00,,,0.45,Wunderground v.1.15,2013-09-10 12:10:00,
2013-09-10 07:20:00,74.4,74.1,30.00,ESE,103,0.0,0.0,99,0.00,,,0.45,Wunderground v.1.15,2013-09-10 12:20:00,
2013-09-10 07:30:00,74.4,74.1,30.00,ESE,103,0.0,0.0,99,0.00,,,0.45,Wunderground v.1.15,2013-09-10 12:30:00,
2013-09-10 07:40:00,74.5,74.2,30.00,ESE,103,0.0,1.0,99,0.00,,,0.45,Wunderground v.1.15,2013-09-10 12:40:00,
2013-09-10 07:50:00,74.7,74.4,30.01,ESE,103,0.0,1.0,99,0.00,,,0.45,Wunderground v.1.15,2013-09-10 12:50:00,
2013-09-10 08:00:00,74.9,74.9,30.01,ESE,103,0.0,0.0,100,0.00,,,0.46,Wunderground v.1.15,2013-09-10 13:00:00,
2013-09-10 08:10:00,75.1,75.1,30.01,ESE,103,0.0,0.0,100,0.00,,,0.46,Wunderground v.1.15,2013-09-10 13:10:00,
2013-09-10 08:20:00,75.3,75.3,30.01,ESE,103,0.0,0.0,100,0.00,,,0.46,Wunderground v.1.15,2013-09-10 13:20:00,
2013-09-10 08:30:00,75.5,75.5,30.02,ESE,103,0.0,0.0,100,0.00,,,0.46,Wunderground v.1.15,2013-09-10 13:30:00,
2013-09-10 08:40:00,75.9,75.9,30.02,ESE,103,0.0,0.0,100,0.00,,,0.46,Wunderground v.1.15,2013-09-10 13:40:00,
2013-09-10 08:50:00,76.3,76.3,30.02,ESE,103,0.0,0.0,100,0.00,,,0.46,Wunderground v.1.15,2013-09-10 13:50:00,
2013-09-10 09:00:00,77.1,77.1,30.02,ESE,103,0.0,0.0,100,0.00,,,0.46,Wunderground v.1.15,2013-09-10 14:00:00,
2013-09-10 09:10:00,77.9,77.9,30.03,ESE,103,0.0,0.0,100,0.00,,,0.46,Wunderground v.1.15,2013-09-10 14:10:00,
2013-09-10 09:20:00,78.1,78.1,30.03,ESE,103,0.0,0.0,100,0.00,,,0.46,Wunderground v.1.15,2013-09-10 14:20:00,
2013-09-10 09:30:00,78.8,78.8,30.03,ESE,103,0.0,0.0,100,0.00,,,0.46,Wunderground v.1.15,2013-09-10 14:30:00,
2013-09-10 09:40:00,79.3,79.3,30.03,ESE,103,0.0,1.0,100,0.00,,,0.46,Wunderground v.1.15,2013-09-10 14:40:00,
2013-09-10 09:50:00,79.6,79.6,30.04,East,99,0.0,1.0,100,0.00,,,0.46,Wunderground v.1.15,2013-09-10 14:50:00,
2013-09-10 10:00:00,80.0,80.0,30.04,East,89,0.0,0.0,100,0.00,,,0.46,Wunderground v.1.15,2013-09-10 15:00:00,
2013-09-10 10:10:00,80.4,80.4,30.04,ESE,105,0.0,0.0,100,0.00,,,0.46,Wunderground v.1.15,2013-09-10 15:10:00,
2013-09-10 10:20:00,80.8,80.5,30.04,NE,34,0.0,0.0,99,0.00,,,0.46,Wunderground v.1.15,2013-09-10 15:20:00,
2013-09-10 10:30:00,81.4,81.1,30.04,East,85,0.0,0.0,99,0.00,,,0.46,Wunderground v.1.15,2013-09-10 15:30:00,
2013-09-10 10:40:00,80.9,80.3,30.04,East,87,1.0,3.0,98,0.00,,,0.46,Wunderground v.1.15,2013-09-10 15:40:00,
2013-09-10 10:50:00,80.8,79.2,30.05,ENE,77,1.0,2.0,95,0.00,,,0.46,Wunderground v.1.15,2013-09-10 15:50:00,
2013-09-10 11:00:00,81.5,78.6,30.04,NE,51,1.0,1.0,91,0.00,,,0.46,Wunderground v.1.15,2013-09-10 16:00:00,
2013-09-10 11:10:00,82.8,78.5,30.04,SW,218,1.0,2.0,87,0.00,,,0.46,Wunderground v.1.15,2013-09-10 16:10:00,
2013-09-10 11:20:00,83.3,78.3,30.05,NW,321,2.0,3.0,85,0.00,,,0.46,Wunderground v.1.15,2013-09-10 16:20:00,
2013-09-10 11:30:00,83.7,77.2,30.05,ENE,74,3.0,3.0,81,0.00,,,0.46,Wunderground v.1.15,2013-09-10 16:30:00,
2013-09-10 11:40:00,85.0,77.4,30.05,SSE,166,3.0,4.0,78,0.00,,,0.46,Wunderground v.1.15,2013-09-10 16:40:00,
2013-09-10 11:50:00,86.4,76.7,30.05,SE,124,3.0,3.0,73,0.00,,,0.46,Wunderground v.1.15,2013-09-10 16:50:00,
2013-09-10 12:00:00,86.5,76.8,30.05,ENE,77,3.0,3.0,73,0.00,,,0.46,Wunderground v.1.15,2013-09-10 17:00:00,
2013-09-10 12:10:00,87.4,76.0,30.05,SSE,166,3.0,3.0,69,0.00,,,0.46,Wunderground v.1.15,2013-09-10 17:10:00,
2013-09-10 12:20:00,88.2,76.7,30.05,SSW,207,3.0,3.0,69,0.00,,,0.46,Wunderground v.1.15,2013-09-10 17:20:00,
2013-09-10 12:30:00,88.4,76.9,30.05,NE,48,3.0,5.0,69,0.00,,,0.46,Wunderground v.1.15,2013-09-10 17:30:00,
2013-09-10 12:40:00,88.2,76.7,30.05,East,84,3.0,10.0,69,0.00,,,0.46,Wunderground v.1.15,2013-09-10 17:40:00,
2013-09-10 12:50:00,88.4,77.8,30.05,ESE,113,4.0,4.0,71,0.00,,,0.46,Wunderground v.1.15,2013-09-10 17:50:00,
2013-09-10 13:00:00,88.7,77.2,30.04,ESE,114,3.0,3.0,69,0.00,,,0.46,Wunderground v.1.15,2013-09-10 18:00:00,
2013-09-10 13:10:00,88.4,76.5,30.04,SSW,193,2.0,3.0,68,0.00,,,0.46,Wunderground v.1.15,2013-09-10 18:10:00,
2013-09-10 13:19:00,89.2,76.8,30.04,NE,54,3.0,3.0,67,0.00,,,0.46,Wunderground v.1.15,2013-09-10 18:19:00,
2013-09-10 13:29:00,89.0,77.9,30.03,ESE,105,2.0,4.0,70,0.00,,,0.46,Wunderground v.1.15,2013-09-10 18:29:00,
2013-09-10 13:40:00,89.5,75.2,30.03,SE,132,3.0,3.0,63,0.00,,,0.46,Wunderground v.1.15,2013-09-10 18:40:00,
2013-09-10 13:50:00,89.3,76.4,30.03,East,86,3.0,10.0,66,0.00,,,0.46,Wunderground v.1.15,2013-09-10 18:50:00,
2013-09-10 14:00:00,88.8,76.4,30.03,East,100,4.0,4.0,67,0.00,,,0.46,Wunderground v.1.15,2013-09-10 19:00:00,
2013-09-10 14:10:00,88.6,77.6,30.02,ENE,60,4.0,4.0,70,0.00,,,0.46,Wunderground v.1.15,2013-09-10 19:10:00,
2013-09-10 14:20:00,89.2,77.7,30.02,NE,56,3.0,3.0,69,0.00,,,0.46,Wunderground v.1.15,2013-09-10 19:20:00,
2013-09-10 14:30:00,89.1,78.0,30.02,East,98,2.0,3.0,70,0.00,,,0.46,Wunderground v.1.15,2013-09-10 19:30:00,
2013-09-10 14:40:00,88.5,77.5,30.02,NW,316,4.0,4.0,70,0.00,,,0.46,Wunderground v.1.15,2013-09-10 19:40:00,
2013-09-10 14:50:00,89.2,77.3,30.01,ENE,75,3.0,3.0,68,0.00,,,0.46,Wunderground v.1.15,2013-09-10 19:50:00,
2013-09-10 15:00:00,88.9,78.3,30.01,SE,138,4.0,4.0,71,0.00,,,0.46,Wunderground v.1.15,2013-09-10 20:00:00,
2013-09-10 15:10:00,88.3,76.8,30.01,ESE,103,4.0,4.0,69,0.00,,,0.46,Wunderground v.1.15,2013-09-10 20:10:00,
2013-09-10 15:20:00,87.9,77.3,30.01,South,176,3.0,3.0,71,0.00,,,0.46,Wunderground v.1.15,2013-09-10 20:20:00,
2013-09-10 15:30:00,87.5,77.4,30.01,East,82,4.0,4.0,72,0.00,,,0.46,Wunderground v.1.15,2013-09-10 20:30:00,
2013-09-10 15:50:00,87.3,76.3,30.00,ENE,66,5.0,5.0,70,0.00,,,0.46,Wunderground v.1.15,2013-09-10 20:50:00,
2013-09-10 16:00:00,88.2,77.6,30.00,SW,215,3.0,3.0,71,0.00,,,0.46,Wunderground v.1.15,2013-09-10 21:00:00,
2013-09-10 16:10:00,87.7,78.0,29.99,East,98,4.0,7.0,73,0.00,,,0.46,Wunderground v.1.15,2013-09-10 21:10:00,
2013-09-10 16:20:00,87.3,76.7,29.99,ENE,75,5.0,5.0,71,0.00,,,0.46,Wunderground v.1.15,2013-09-10 21:20:00,
2013-09-10 16:30:00,87.2,77.5,29.99,SE,127,4.0,7.0,73,0.00,,,0.46,Wunderground v.1.15,2013-09-10 21:30:00,
2013-09-10 16:40:00,87.1,78.2,29.98,NNW,334,4.0,4.0,75,0.00,,,0.46,Wunderground v.1.15,2013-09-10 21:40:00,
2013-09-10 16:50:00,87.1,78.2,29.99,SSE,162,4.0,4.0,75,0.00,,,0.46,Wunderground v.1.15,2013-09-10 21:50:00,
2013-09-10 17:00:00,86.8,77.9,29.99,NE,56,2.0,2.0,75,0.00,,,0.46,Wunderground v.1.15,2013-09-10 22:00:00,
2013-09-10 17:10:00,87.4,78.5,29.99,WSW,240,2.0,2.0,75,0.00,,,0.46,Wunderground v.1.15,2013-09-10 22:10:00,
2013-09-10 17:20:00,87.8,78.1,29.99,ENE,57,4.0,4.0,73,0.00,,,0.46,Wunderground v.1.15,2013-09-10 22:20:00,
2013-09-10 17:30:00,86.3,77.4,30.00,ENE,68,2.0,2.0,75,0.00,,,0.46,Wunderground v.1.15,2013-09-10 22:30:00,
2013-09-10 17:40:00,86.3,77.4,30.00,SE,135,1.0,13.0,75,0.00,,,0.46,Wunderground v.1.15,2013-09-10 22:40:00,
2013-09-10 17:50:00,85.8,77.0,30.00,East,87,3.0,3.0,75,0.00,,,0.46,Wunderground v.1.15,2013-09-10 22:50:00,
2013-09-10 18:00:00,85.2,77.2,30.00,SE,138,2.0,2.0,77,0.00,,,0.46,Wunderground v.1.15,2013-09-10 23:00:00,
2013-09-10 18:10:00,84.9,76.5,30.00,NE,47,3.0,3.0,76,0.00,,,0.46,Wunderground v.1.15,2013-09-10 23:10:00,
2013-09-10 18:20:00,85.3,76.9,29.99,ENE,58,3.0,3.0,76,0.00,,,0.46,Wunderground v.1.15,2013-09-10 23:20:00,
2013-09-10 18:30:00,85.3,77.3,29.99,ESE,111,2.0,2.0,77,0.00,,,0.46,Wunderground v.1.15,2013-09-10 23:30:00,
2013-09-10 18:40:00,85.0,77.4,29.99,NNW,342,3.0,3.0,78,0.00,,,0.46,Wunderground v.1.15,2013-09-10 23:40:00,
2013-09-10 18:50:00,84.5,77.3,29.99,ESE,103,3.0,3.0,79,0.00,,,0.46,Wunderground v.1.15,2013-09-10 23:50:00,
2013-09-10 19:00:00,83.9,77.1,30.00,NE,44,2.0,2.0,80,0.00,,,0.46,Wunderground v.1.15,2013-09-11 00:00:00,
2013-09-10 19:09:00,83.6,76.8,30.00,East,95,2.0,2.0,80,0.00,,,0.46,Wunderground v.1.15,2013-09-11 00:09:00,
2013-09-10 19:20:00,83.2,76.4,30.00,ESE,108,2.0,2.0,80,0.00,,,0.46,Wunderground v.1.15,2013-09-11 00:20:00,
2013-09-10 19:30:00,82.8,76.4,30.00,East,87,1.0,2.0,81,0.00,,,0.46,Wunderground v.1.15,2013-09-11 00:30:00,
2013-09-10 19:40:00,82.5,76.1,30.00,SE,134,1.0,1.0,81,0.00,,,0.46,Wunderground v.1.15,2013-09-11 00:40:00,
2013-09-10 19:50:00,82.2,75.8,30.00,ESE,106,0.0,12.0,81,0.00,,,0.46,Wunderground v.1.15,2013-09-11 00:50:00,
2013-09-10 20:00:00,82.0,75.6,30.00,SE,124,1.0,1.0,81,0.00,,,0.46,Wunderground v.1.15,2013-09-11 01:00:00,
2013-09-10 20:10:00,81.7,75.3,30.00,East,81,1.0,1.0,81,0.00,,,0.46,Wunderground v.1.15,2013-09-11 01:10:00,
2013-09-10 20:20:00,81.5,75.1,30.01,SE,144,1.0,2.0,81,0.00,,,0.46,Wunderground v.1.15,2013-09-11 01:20:00,
2013-09-10 20:30:00,81.4,75.4,30.00,East,100,1.0,1.0,82,0.00,,,0.46,Wunderground v.1.15,2013-09-11 01:30:00,
2013-09-10 20:40:00,81.0,75.0,30.00,SE,135,1.0,1.0,82,0.00,,,0.46,Wunderground v.1.15,2013-09-11 01:40:00,
2013-09-10 20:50:00,80.9,75.2,30.01,ENE,62,0.0,8.0,83,0.00,,,0.46,Wunderground v.1.15,2013-09-11 01:50:00,
2013-09-10 21:00:00,80.7,75.1,30.01,SE,124,0.0,0.0,83,0.00,,,0.46,Wunderground v.1.15,2013-09-11 02:00:00,
2013-09-10 21:10:00,80.4,75.1,30.02,SE,124,0.0,0.0,84,0.00,,,0.46,Wunderground v.1.15,2013-09-11 02:10:00,
2013-09-10 21:20:00,79.9,75.0,30.02,ESE,103,0.0,0.0,85,0.00,,,0.46,Wunderground v.1.15,2013-09-11 02:20:00,
2013-09-10 21:30:00,79.4,74.8,30.02,ESE,103,0.0,0.0,86,0.00,,,0.46,Wunderground v.1.15,2013-09-11 02:30:00,
2013-09-10 21:40:00,79.0,74.8,30.02,ESE,103,0.0,6.0,87,0.00,,,0.46,Wunderground v.1.15,2013-09-11 02:40:00,
2013-09-10 21:50:00,78.3,74.5,30.03,ESE,103,0.0,6.0,88,0.00,,,0.46,Wunderground v.1.15,2013-09-11 02:50:00,
2013-09-10 22:00:00,77.7,74.2,30.03,ESE,103,0.0,0.0,89,0.00,,,0.46,Wunderground v.1.15,2013-09-11 03:00:00,
2013-09-10 22:10:00,77.3,74.1,30.03,ESE,103,0.0,0.0,90,0.00,,,0.46,Wunderground v.1.15,2013-09-11 03:10:00,
2013-09-10 22:20:00,77.0,74.2,30.03,ESE,103,0.0,0.0,91,0.00,,,0.46,Wunderground v.1.15,2013-09-11 03:20:00,
2013-09-10 22:30:00,76.8,74.0,30.03,ESE,103,0.0,0.0,91,0.00,,,0.46,Wunderground v.1.15,2013-09-11 03:30:00,
2013-09-10 22:40:00,76.5,74.0,30.04,ESE,103,0.0,1.0,92,0.00,,,0.46,Wunderground v.1.15,2013-09-11 03:40:00,
2013-09-10 22:50:00,76.3,73.8,30.04,ESE,103,0.0,1.0,92,0.00,,,0.46,Wunderground v.1.15,2013-09-11 03:50:00,
2013-09-10 23:00:00,75.9,73.4,30.04,ESE,103,0.0,0.0,92,0.00,,,0.46,Wunderground v.1.15,2013-09-11 04:00:00,
2013-09-10 23:10:00,75.9,73.7,30.04,ESE,103,0.0,0.0,93,0.00,,,0.46,Wunderground v.1.15,2013-09-11 04:10:00,
2013-09-10 23:20:00,75.9,74.0,30.04,ESE,103,0.0,0.0,94,0.00,,,0.46,Wunderground v.1.15,2013-09-11 04:20:00,
2013-09-10 23:30:00,76.0,74.1,30.03,ESE,103,0.0,0.0,94,0.00,,,0.46,Wunderground v.1.15,2013-09-11 04:30:00,
2013-09-10 23:40:00,76.1,74.6,30.04,ESE,103,0.0,0.0,95,0.00,,,0.46,Wunderground v.1.15,2013-09-11 04:40:00,
2013-09-10 23:50:00,75.9,74.4,30.03,ESE,103,0.0,0.0,95,0.00,,,0.46,Wunderground v.1.15,2013-09-11 04:50:00,